Location: Tierz
(42.1336°N, 0.3549°W)
Time: 11:33:40
(UTC+00:00)

Cosmos 1980 Rocket - Pass Details

Date: 29 October 2020
Orbit: 831 x 848 km, 71.0° (Epoch: 29 November)

Event Time Altitude Azimuth Distance (km) Brightness Sun altitude
Rises 19:11:02 0° 207° (SSW) 3,377 5.6 -25.1°
Reaches altitude 10° 19:13:28 10° 209° (SSW) 2,444 4.9 -25.5°
Maximum altitude 19:19:05 76° 295° (WNW) 865 2.2 -26.6°
Enters shadow 19:21:20 37° 13° (NNE) 1,267 3.0 -27.0°
